Location: Champseau
(45.8333°N, 1.7667°E)
Time: 09:06:20
(UTC+00:00)

ITUPSAT 1 - Pass Details

Date: 04 December 2021
Orbit: 700 x 713 km, 98.6° (Epoch: 27 January)

Event Time Altitude Azimuth Distance (km) Brightness Sun altitude
Rises 05:41:45 0° 133° (SE) 3,091 ? -16.0°
Reaches altitude 10° 05:44:15 10° 122° (ESE) 2,178 ? -15.6°
Maximum altitude 05:48:16 28° 64° (ENE) 1,331 ? -14.9°
Drops below altitude 10° 05:52:18 10° 7° (N) 2,198 ? -14.2°
Sets 05:54:50 0° 356° (N) 3,124 ? -13.8°
